Back to catalog

STARLINK-35149

AliveCommunicationsVLEO
NORAD 65512·PAYLOAD·🇺🇸 United States

Launched Sep 5, 2025 from Cape Canaveral Space Force Station

Loading…

Next Passes (next 24 hours)

TLE

FreshSource: CelesTrak SupGP

Epoch: Sep 15, 2026, 02:32 UTC

1 65512C 25198W   26258.10604167  .00024697  00000+0  72973-3 0  2588
2 65512  53.1566 107.0427 0001234  83.3894 104.3600 15.34375620    14

Track STARLINK-35149 in real time with AllMySat

Download on the App Store